Regional Weather Roundup
Issued by NWS

Home | Current Version | Previous Version | Text Only | Print | Product List | Glossary Off
Versions: 1 2 3 4 5 6 7 8 9 10 11 12 13 14 15 16 17 18 19 20 21 22 23 24 25 26 27 28

000
ASUS45 KTFX 171510
RWRMT
MONTANA REGIONAL WEATHER ROUNDUP
NATIONAL WEATHER SERVICE GREAT FALLS MT
800 AM MST FRI NOV 17 2017

NOTE: "FAIR" INDICATES FEW OR NO CLOUDS BELOW 12000 FEET WITH NO
SIGNIFICANT WEATHER AND/OR OBSTRUCTIONS TO VISIBILITY.

MTZ001>007-043-171600-
WEST OF THE DIVIDE

CITY           SKY/WX    TMP DP  RH WIND       PRES   REMARKS
KALISPELL      CLOUDY    34  32  92 S9        29.65R WCI  27
MISSOULA       FOG       27  27 100 CALM      29.74R VSB 1/4
BUTTE          MOCLDY    24  21  88 CALM      29.67S
MULLAN PASS    LGT SNOW  22  20  92 VRB3      29.65R FOG
ANACONDA         N/A     30  16  55 SW13      29.69R WCI  20
EUREKA           N/A     37  28  70 MISG      29.64R
HAMILTON         N/A     34  23  64 SE12        N/A  WCI  25
LIBBY            N/A     32  32 100 CALM      29.67R
RONAN            N/A     33  28  82 CALM      29.76R
$$

MTZ008-052>055-171600-
SOUTHWEST MONTANA

CITY           SKY/WX    TMP DP  RH WIND       PRES   REMARKS
BOZEMAN        FAIR      28  25  88 S5        29.68R
DILLON         FAIR      30  22  72 S9        29.68R WCI  22
W YELLOWSTONE  CLOUDY    28  27  93 SW3       29.65R
ENNIS          CLOUDY    32  21  64 CALM      29.72R
$$

MTZ009-010-012-014-046-048-049-054-171600-
EAST SLOPES AND CENTRAL MONTANA

CITY           SKY/WX    TMP DP  RH WIND       PRES   REMARKS
CUT BANK       FAIR      32  25  75 W17       29.54S WCI  21
GREAT FALLS    FAIR      30  19  63 SW13      29.59R WCI  20
MALMSTROM AFB  FAIR      33  21  60 W10       29.60R WCI  25
HELENA         FAIR      28  23  81 S6        29.67R WCI  22
BOWMANS CRNR   FAIR      29  20  70 SW13      29.57R WCI  19
CHOTEAU          N/A     36  16  44 SW9G15    29.58R WCI  29
POWER          FAIR      30  22  70 SW12      29.58R WCI  21
RAYNESFORD     FAIR      36  18  48 SW16      29.59R WCI  26
ULM            FAIR      34  21  59 SW14      29.60R WCI  25
$$

MTZ011-013-016-021-045-047-050-051-171600-
NORTH CENTRAL MONTANA

CITY           SKY/WX    TMP DP  RH WIND       PRES   REMARKS
HAVRE          CLOUDY    25  21  85 NW5       29.58R
LEWISTOWN      MOCLDY    28  20  71 S7        29.60R WCI  21
N BAR RANCH    FAIR      27  18  69 W5        29.62S
CHINOOK          N/A     14  10  85 CALM      29.60S
DENTON         MOCLDY    29  21  71 S9        29.57R WCI  21
GEYSER         MOCLDY    29  19  67 W14       29.57S WCI  18
GRASS RANGE    MOCLDY    29  20  69 SW10      29.57R WCI  20
STANFORD       FAIR      34  17  50 W20       29.58R WCI  22
WINIFRED       MOCLDY    33  20  56 SW7       29.58S WCI  27
$$

MTZ017>020-022>027-061-062-171600-
NORTHEAST MONTANA

CITY           SKY/WX    TMP DP  RH WIND       PRES   REMARKS
GLASGOW        FAIR      19  16  88 E9        29.61S WCI   8
GLENDIVE       FAIR      26  22  84 CALM      29.66R
JORDAN           N/A     23  18  81 CALM      29.60S
SIDNEY         FAIR      17  14  88 N3        29.68S
WOLF POINT     FAIR      14  10  84 E5        29.67R
MALTA          CLEAR     14  12  92 CALM      29.62R
PLENTYWOOD       N/A     10   5  79 CALM      29.66R
POPLAR           N/A     12   9  85 CALM      29.67S
$$

MTZ028>42-056>058-171600-
SOUTHCENTRAL AND SOUTHEAST MONTANA

CITY           SKY/WX    TMP DP  RH WIND       PRES   REMARKS
BAKER          CLOUDY    33  29  85 S12       29.66R WCI  24
BILLINGS       MOCLDY    35  29  78 CALM      29.63S
LIVINGSTON     MOCLDY    32  26  78 SW6       29.63R WCI  26
MILES CITY     FAIR      32  30  92 SE7       29.65R WCI  26
BIG TIMBER     MOCLDY    34  27  75 W22       29.65R WCI  22
FORSYTH          N/A     36  34  93 CALM      29.64R
HARLOWTON      MOCLDY    27  21  79 W17       29.61R WCI  14
LAUREL           N/A     34  30  86 CALM      29.64R
ROUNDUP          N/A     30  20  66 SW5       29.58R
$$

REGIONAL REPORTS...DAKOTAS

CITY           SKY/WX    TMP DP  RH WIND       PRES   REMARKS
WILLISTON      FAIR      14   9  80 CALM      29.69S
MINOT          FAIR      16   9  74 NW10      29.69R WCI   4
DICKINSON      MOCLDY    28  24  85 SW8       29.64S WCI  20
BEACH          FAIR      27  25  93 CALM      29.68R
CROSBY         FLURRIES  10   9  92 NW8       29.69R WCI  -1
TIOGA          FAIR      10  10 100 W3        29.69R
WATFORD CITY   FAIR      14  12  92 CALM      29.68S
BISMARCK       FAIR      33  25  72 NW10      29.71R WCI  25
GRAND FORKS    CLOUDY    32  27  81 NW16      29.65R WCI  21
FARGO          PTSUNNY   35  29  78 S6        29.63S WCI  30
BUFFALO SD       N/A     35  31  85 W6        29.60R WCI  30
RAPID CITY     CLOUDY    36  35  96 NW6       29.70R WCI  31
$$

REGIONAL REPORTS...WYOMING/IDAHO/WASHINGTON

CITY           SKY/WX    TMP DP  RH WIND       PRES   REMARKS
GILLETTE       CLOUDY    33  32  96 SW3       29.69R FOG
SHERIDAN       CLOUDY    33  33 100 S5        29.67F
BUFFALO WY     SNOW      32  30  92 E6        29.67F VSB 1/4 WCI  26
CODY           LGT SNOW  32  30  92 W3        29.64R FOG
YELLOWSTONE LA   N/A     22  21  96 W9G24     29.67R WCI  12
IDAHO FALLS    LGT RAIN  34  33  96 SW16      29.73R WCI  24
SALMON         CLOUDY    31  29  92 VRB5      29.75R
BOISE          FAIR      39  30  70 NW10      29.88R
SPOKANE        MOCLDY    33  31  92 SW13      29.77R WCI  24
$$

REGIONAL REPORTS...ALBERTA

CITY           SKY/WX    TMP DP  RH WIND       PRES   REMARKS
EDMONTON       MOCLDY     7   0  72 W5        29.65R
CALGARY        LGT SNOW   7   3  85 NE13      29.55  VSB 1   WCI  -9
LETHBRIDGE     MOCLDY     7   3  85 NE9       29.56R FOG     WCI  -7
MEDICINE HAT   MOCLDY     9   5  85 N6        29.61R WCI  -1
$$

REGIONAL REPORTS...SASKATCHEWAN

CITY           SKY/WX    TMP DP  RH WIND       PRES   REMARKS
SWIFT CURRENT  CLEAR      3  -2  78 E2        29.58R
REGINA         FLURRIES   5   1  85 W10       29.66R WCI -10
SASKATOON      FLURRIES   7   1  78 SW9       29.67R WCI  -7
$$




USA.gov is the U.S. government's official web portal to all federal, state and local government web resources and services.